This demonstration page uses our WeatherBlox Daily Observations layout. Learn more.

Left ArrowRight Arrow

Hourly Observations for January 15, 2017

Temp ( °F °C ) Dew Point ( °F °C ) Humidity (%) Winds ( mph kmh ) Pressure ( in mb ) Visibility ( mi km ) Precip ( " mm )
12:53 am 00:53 Clear 37 2.8 34 1.1 89 89 Calm 30.13 1020 10 16 0.00 0.00
1:53 am 01:53 Clear 36 2.2 33 0.6 89 89 NNE 3 6 30.14 1021 10 16 0.00 0.00
2:53 am 02:53 Clear 34 1.1 32 0 92 92 Calm 30.15 1021 10 16 0.00 0.00
3:53 am 03:53 Clear 33 0.6 31 -0.6 92 92 Calm 30.14 1021 10 16 0.00 0.00
4:53 am 04:53 Clear 32 0 30 -1.1 92 92 Calm 30.14 1021 10 16 0.00 0.00
5:53 am 05:53 Mostly Cloudy with Mist and Fog 31 -0.6 30 -1.1 96 96 Calm 30.15 1021 2 2 0.00 0.00
6:06 am 06:06 Mostly Cloudy with Mist and Fog 30 -1 30 -1 100 100 Calm 30.18 1022 3 4 0.00 0.00
6:12 am 06:12 Partly Cloudy with Mist and Fog 30 -1 30 -1 100 100 Calm 30.18 1022 6 10 0.00 0.00
6:53 am 06:53 Clear 30 -1.1 29 -1.7 96 96 Calm 30.16 1021 10 16 0.00 0.00
7:48 am 07:48 Partly Cloudy with Mist and Fog 30 -1 28 -2 93 93 ESE 3 6 30.21 1023 2 2 0.00 0.00
7:51 am 07:51 Mostly Cloudy with Freezing Fog 30 -1 28 -2 93 93 ESE 3 6 30.18 1022 0 0 0.00 0.00
7:53 am 07:53 Mostly Cloudy with Freezing Fog 30 -1.1 29 -1.7 96 96 Calm 30.16 1022 0 0 0.00 0.00
8:53 am 08:53 Mostly Cloudy with Freezing Fog 31 -0.6 31 -0.6 100 100 Calm 30.18 1022 5 8 0.00 0.00
9:53 am 09:53 Mostly Cloudy with Fog 33 0.6 33 0.6 100 100 Calm 30.18 1022 0 0 0.00 0.00
10:15 am 10:15 Cloudy with Mist and Fog 36 2 36 2 100 100 SSE 3 6 30.18 1022 1 2 0.00 0.00
10:17 am 10:17 Partly Cloudy with Mist and Fog 35 1.7 35 1.7 100 100 Calm 30.15 1021 3 5 0.00 0.00
10:53 am 10:53 Sunny 38 3.3 37 2.8 97 97 Calm 30.16 1021 10 16 0.00 0.00
11:53 am 11:53 Sunny 46 7.8 38 3.3 73 73 S 3 6 30.12 1020 10 16 0.00 0.00
12:53 pm 12:53 Sunny 54 12.2 38 3.3 55 55 S 3 6 30.09 1019 10 16 0.00 0.00
1:53 pm 13:53 Sunny 59 15 38 3.3 46 46 VRB 3 6 30.05 1018 10 16 0.00 0.00
2:53 pm 14:53 Sunny 62 16.7 31 -0.6 31 31 N 12 19 30.05 1018 10 16 0.00 0.00
3:53 pm 15:53 Sunny 62 16.7 34 1.1 35 35 N 10 17 30.06 1018 10 16 0.00 0.00
4:53 pm 16:53 Sunny 58 14.4 31 -0.6 36 36 ENE 6 9 30.09 1019 10 16 0.00 0.00
5:53 pm 17:53 Clear 55 12.8 31 -0.6 40 40 N 13 20 30.09 1019 10 16 0.00 0.00
6:53 pm 18:53 Clear 54 12.2 30 -1.1 40 40 VRB 3 6 30.12 1020 10 16 0.00 0.00
7:53 pm 19:53 Clear 52 11.1 31 -0.6 45 45 NNE 8 13 30.14 1021 10 16 0.00 0.00
8:53 pm 20:53 Clear 41 5 37 2.8 86 86 SE 3 6 30.17 1022 10 16 0.00 0.00
9:53 pm 21:53 Clear 40 4.4 37 2.8 89 89 E 3 6 30.18 1022 10 16 0.00 0.00
10:53 pm 22:53 Clear 39 3.9 38 3.3 96 96 Calm 30.19 1022 7 11 0.00 0.00
11:53 pm 23:53 Clear with Mist and Fog 38 3.3 37 2.8 97 97 Calm 30.19 1022 3 5 0.00 0.00

Powered by AerisWeather